When you browse on this site, cookies collect data to enhance your experience and personalize the content and advertising you see.
Visit our Privacy Policy to learn more. By continuing to use the site, you agree to this use of cookies and data.
  • In Portugal
  • List of Countries
  • For 7 days
  • Water Temperature
  • Weather Map
  • Weather Widgets
  • user-avatar
    Login

    Hourly Weather Mayrhofen

    Today, 1 June, Monday

    Time Temperature Precipitation Wind Pressure Humidity
    00:00 +2°C° 0 mm 1 mps 617 mmHg 94%
    01:00 +1°C° 0 mm 1 mps 617 mmHg 94%
    02:00 +1°C° 0 mm 1 mps 617 mmHg 93%
    03:00 +1°C° 0 mm 1 mps 617 mmHg 93%
    04:00 +1°C° 0 mm 1 mps 616 mmHg 92%
    05:00 +4°C° 0 mm 1 mps 618 mmHg 84%
    06:00 +5°C° 0 mm 0 mps 619 mmHg 75%
    07:00 +7°C° 0 mm 0 mps 620 mmHg 67%
    08:00 +10°C° 0 mm 1 mps 620 mmHg 61%
    09:00 +12°C° 0 mm 1 mps 621 mmHg 55%
    10:00 +14°C° 0 mm 1 mps 621 mmHg 49%
    11:00 +15°C° 0 mm 2 mps 621 mmHg 46%
    12:00 +16°C° 0 mm 2 mps 621 mmHg 44%
    13:00 +17°C° 0 mm 2 mps 622 mmHg 41%
    14:00 +16°C° 0 mm 2 mps 621 mmHg 43%
    15:00 +16°C° 0 mm 3 mps 621 mmHg 44%
    16:00 +16°C° 0 mm 3 mps 621 mmHg 46%
    17:00 +15°C° 0.1 mm 2 mps 621 mmHg 56%
    18:00 +13°C° 0.1 mm 2 mps 620 mmHg 67%
    19:00 +10°C° 0.1 mm 2 mps 619 mmHg 77%
    20:00 +9°C° 0 mm 1 mps 619 mmHg 83%
    21:00 +7°C° 0 mm 1 mps 618 mmHg 89%
    22:00 +5°C° 0 mm 1 mps 618 mmHg 95%
    23:00 +5°C° 0 mm 1 mps 618 mmHg 95%

    Tomorrow, 2 June, Tuesday

    Time Temperature Precipitation Wind Pressure Humidity
    00:00 +5°C° 0 mm 1 mps 617 mmHg 95%
    01:00 +4°C° 0 mm 1 mps 617 mmHg 95%
    02:00 +4°C° 0 mm 1 mps 617 mmHg 94%
    03:00 +4°C° 0 mm 1 mps 617 mmHg 93%
    04:00 +3°C° 0 mm 1 mps 616 mmHg 93%
    05:00 +6°C° 0 mm 1 mps 617 mmHg 86%
    06:00 +8°C° 0 mm 1 mps 618 mmHg 80%
    07:00 +10°C° 0 mm 1 mps 619 mmHg 74%
    08:00 +12°C° 0 mm 2 mps 619 mmHg 65%
    09:00 +13°C° 0 mm 2 mps 620 mmHg 56%
    10:00 +15°C° 0 mm 2 mps 620 mmHg 47%
    11:00 +16°C° 0.1 mm 2 mps 620 mmHg 45%
    12:00 +16°C° 0.1 mm 3 mps 620 mmHg 43%
    13:00 +17°C° 0.1 mm 3 mps 620 mmHg 41%
    14:00 +16°C° 0.3 mm 3 mps 619 mmHg 44%
    15:00 +16°C° 0.3 mm 3 mps 619 mmHg 47%
    16:00 +14°C° 0.3 mm 3 mps 618 mmHg 49%
    17:00 +13°C° 0.2 mm 3 mps 618 mmHg 58%
    18:00 +12°C° 0.2 mm 2 mps 617 mmHg 66%
    19:00 +10°C° 0.2 mm 2 mps 616 mmHg 74%
    20:00 +8°C° 0 mm 2 mps 616 mmHg 80%
    21:00 +7°C° 0 mm 1 mps 615 mmHg 86%
    22:00 +5°C° 0 mm 1 mps 615 mmHg 91%
    23:00 +5°C° 0 mm 1 mps 614 mmHg 90%

    Day after tomorrow, 3 June, Wednesday

    Time Temperature Precipitation Wind Pressure Humidity
    00:00 +4°C° 0 mm 1 mps 614 mmHg 90%
    01:00 +4°C° 0 mm 1 mps 613 mmHg 89%
    02:00 +4°C° 0 mm 1 mps 613 mmHg 87%
    03:00 +4°C° 0 mm 1 mps 613 mmHg 86%
    04:00 +3°C° 0 mm 1 mps 613 mmHg 84%
    05:00 +5°C° 0 mm 0 mps 613 mmHg 76%
    06:00 +7°C° 0 mm 0 mps 614 mmHg 68%
    07:00 +9°C° 0 mm 0 mps 614 mmHg 59%
    08:00 +11°C° 0 mm 0 mps 615 mmHg 51%
    09:00 +14°C° 0 mm 1 mps 616 mmHg 43%
    10:00 +16°C° 0 mm 1 mps 616 mmHg 35%
    11:00 +18°C° 0 mm 1 mps 616 mmHg 34%
    12:00 +18°C° 0 mm 1 mps 616 mmHg 33%
    13:00 +19°C° 0 mm 1 mps 615 mmHg 32%
    14:00 +18°C° 0.1 mm 1 mps 615 mmHg 37%
    15:00 +18°C° 0.1 mm 1 mps 614 mmHg 42%
    16:00 +16°C° 0.1 mm 1 mps 614 mmHg 47%
    17:00 +15°C° 0.3 mm 1 mps 613 mmHg 57%
    18:00 +13°C° 0.3 mm 1 mps 612 mmHg 67%
    19:00 +12°C° 0.3 mm 1 mps 612 mmHg 78%
    20:00 +9°C° 0.1 mm 2 mps 611 mmHg 82%
    21:00 +8°C° 0.1 mm 2 mps 611 mmHg 85%
    22:00 +7°C° 0.1 mm 2 mps 610 mmHg 89%
    23:00 +7°C° 0 mm 2 mps 610 mmHg 91%

    4 June, Thursday

    Time Temperature Precipitation Wind Pressure Humidity
    00:00 +6°C° 0 mm 2 mps 610 mmHg 92%
    01:00 +6°C° 0 mm 2 mps 609 mmHg 94%
    02:00 +6°C° 0 mm 2 mps 609 mmHg 94%
    03:00 +6°C° 0 mm 2 mps 609 mmHg 94%
    04:00 +6°C° 0 mm 2 mps 609 mmHg 94%
    05:00 +7°C° 0.2 mm 2 mps 609 mmHg 92%
    06:00 +9°C° 0.2 mm 1 mps 609 mmHg 90%
    07:00 +9°C° 0.2 mm 1 mps 609 mmHg 89%
    08:00 +9°C° 0.4 mm 1 mps 609 mmHg 89%
    09:00 +9°C° 0.4 mm 1 mps 609 mmHg 90%
    10:00 +10°C° 0.4 mm 1 mps 608 mmHg 91%
    11:00 +9°C° 0.4 mm 2 mps 608 mmHg 89%
    12:00 +9°C° 0.4 mm 2 mps 608 mmHg 88%
    13:00 +10°C° 0.4 mm 2 mps 608 mmHg 86%
    14:00 +10°C° 0.6 mm 2 mps 608 mmHg 86%
    15:00 +9°C° 0.6 mm 2 mps 608 mmHg 86%
    16:00 +9°C° 0.6 mm 2 mps 607 mmHg 86%
    17:00 +9°C° 0.9 mm 2 mps 607 mmHg 89%
    18:00 +8°C° 0.9 mm 2 mps 607 mmHg 92%
    19:00 +7°C° 0.9 mm 2 mps 606 mmHg 96%
    20:00 +7°C° 1.5 mm 2 mps 606 mmHg 97%
    21:00 +7°C° 1.5 mm 1 mps 606 mmHg 97%
    22:00 +7°C° 1.5 mm 1 mps 606 mmHg 98%
    23:00 +6°C° 3.2 mm 1 mps 605 mmHg 98%

    5 June, Friday

    Time Temperature Precipitation Wind Pressure Humidity
    00:00 +5°C° 3.2 mm 1 mps 605 mmHg 98%
    01:00 +5°C° 3.2 mm 1 mps 604 mmHg 98%
    02:00 +4°C° 3.2 mm 1 mps 604 mmHg 98%
    03:00 +3°C° 3.2 mm 2 mps 604 mmHg 98%
    04:00 +3°C° 3.2 mm 2 mps 604 mmHg 99%
    05:00 +3°C° 2.3 mm 2 mps 604 mmHg 98%
    06:00 +3°C° 2.3 mm 2 mps 604 mmHg 98%
    07:00 +3°C° 2.3 mm 2 mps 605 mmHg 98%
    08:00 +3°C° 1.4 mm 2 mps 605 mmHg 98%
    09:00 +2°C° 1.4 mm 2 mps 605 mmHg 98%
    10:00 +1°C° 1.4 mm 3 mps 606 mmHg 98%
    11:00 +2°C° 0.5 mm 3 mps 606 mmHg 96%
    12:00 +2°C° 0.5 mm 3 mps 607 mmHg 94%
    13:00 +2°C° 0.5 mm 3 mps 607 mmHg 92%
    14:00 +4°C° 0.4 mm 2 mps 607 mmHg 91%
    15:00 +4°C° 0.4 mm 2 mps 608 mmHg 89%
    16:00 +4°C° 0.4 mm 2 mps 608 mmHg 88%
    17:00 +4°C° 0.3 mm 2 mps 608 mmHg 89%
    18:00 +3°C° 0.3 mm 2 mps 609 mmHg 90%
    19:00 +3°C° 0.3 mm 2 mps 609 mmHg 92%
    20:00 +2°C° 0.1 mm 2 mps 609 mmHg 92%
    21:00 +1°C° 0.1 mm 2 mps 610 mmHg 93%
    22:00 -1°C° 0.1 mm 2 mps 610 mmHg 94%
    23:00 -1°C° 0 mm 2 mps 610 mmHg 92%

    6 June, Saturday

    Time Temperature Precipitation Wind Pressure Humidity
    00:00 0°C° 0 mm 1 mps 610 mmHg 90%
    01:00 0°C° 0 mm 1 mps 610 mmHg 88%
    02:00 -1°C° 0 mm 1 mps 610 mmHg 86%
    03:00 -1°C° 0 mm 1 mps 610 mmHg 84%
    04:00 -1°C° 0 mm 1 mps 610 mmHg 82%
    05:00 +1°C° 0 mm 1 mps 611 mmHg 81%
    06:00 +3°C° 0 mm 1 mps 612 mmHg 80%
    07:00 +5°C° 0 mm 1 mps 613 mmHg 79%
    08:00 +7°C° 0 mm 1 mps 614 mmHg 72%
    09:00 +9°C° 0 mm 1 mps 614 mmHg 66%
    10:00 +11°C° 0 mm 1 mps 615 mmHg 59%
    11:00 +12°C° 0 mm 1 mps 615 mmHg 57%
    12:00 +13°C° 0 mm 2 mps 615 mmHg 56%
    13:00 +14°C° 0 mm 2 mps 615 mmHg 54%
    14:00 +14°C° 0 mm 2 mps 615 mmHg 54%
    15:00 +14°C° 0 mm 2 mps 615 mmHg 54%
    16:00 +14°C° 0 mm 2 mps 615 mmHg 53%
    17:00 +13°C° 0 mm 2 mps 615 mmHg 61%
    18:00 +12°C° 0 mm 2 mps 615 mmHg 69%
    19:00 +9°C° 0 mm 2 mps 614 mmHg 77%
    20:00 +8°C° 0 mm 2 mps 614 mmHg 82%
    21:00 +6°C° 0 mm 2 mps 614 mmHg 86%
    22:00 +5°C° 0 mm 2 mps 613 mmHg 91%
    23:00 +5°C° 0 mm 2 mps 613 mmHg 92%
    Show more